Location: Bukit Lungun
(2.6833°N, 113.9667°E)
Time: 10:35:34
(UTC+00:00)

Chandra Rocket (1) - Pass Details

Date: 02 March 2021
Orbit: 350 x 10996 km, 28.4° (Epoch: 20 April)

Event Time Altitude Azimuth Distance (km) Brightness Sun altitude
Exits shadow 20:48:51 50° 338° (NNW) 1,204 3.2 -26.9°
Maximum altitude 20:49:58 60° 23° (NNE) 951 2.9 -26.7°
Drops below altitude 10° 20:53:30 10° 105° (ESE) 1,756 5.4 -25.8°
Sets 20:54:58 0° 109° (ESE) 2,409 6.4 -25.4°
